ジャクソン-ニェウイミン彗星

58P/Jackson-Neujmin (2012)

English version
Home page
Total 6,336 html files since Dec. 4, 1995
Updated on July 7, 2007

---------------------------------------------------------------------

・ プロフィール

・ 軌道要素

Perturbed ephemeris below is based on unperturbed elements from MPC 42666. 

 Epoch = 2456040.50000 TT   T = 2456027.51247 TT
 Peri. =  200.48797         a =     4.0736720 AU
 Node  =  160.63481 J2000.0 e =     0.6626044
 Incl. =   13.48976         q =     1.3744389 AU

・ 星図

・ 光度変化

        m1 = 7.5 + 5 logΔ + 30 log r(t - 80)

---------------------------------------------------------------------

軌道要素はMinor Planet & Comet Ephemeris Serviceで計算したものです。
星図は StellaNavigator Ver.2.0 for Windows (アストロアーツ 編著 / アスキー出版局刊) で作成したものです。
光度グラフはComet for Windowsで作成したものです。

---------------------------------------------------------------------

Copyright(C) 1995-2008 Seiichi Yoshida (comet@aerith.net). All rights reserved.